Warning: include(/datas/vol1/w4a123858/var/www/legheer.be/meteo3/wt_data_intl.php): failed to open stream: No such file or directory in /datas/vol1/w4a123858/var/www/legheer.be/meteo3/wuh.php on line 24

Warning: include(): Failed opening 'wt_data_intl.php' for inclusion (include_path='.:/opt/alt/php56/usr/share/pear') in /datas/vol1/w4a123858/var/www/legheer.be/meteo3/wuh.php on line 24
| Quelques graphiques

Language: 


Des rapports , des résumés tant et plus, au choix de chacun....


Données statistiques de la station
Quotidien Rapport Décembre 16, 2017 Unités:  Anglais    Métrique   les deux
« Précédent Jour
Suivant Jour »
Quotidien Hebdomadaire Mensuel Annuel Actuel
  Haut: Bas: Moyen:
Température: TemperatureC °F 0.0 °F 2.6 °F
Pt de rosée: DewpointC °F 0.0 °F 3.2 °F
Humidité: Humidity % 0 % 76 %
Vitesse du vent: WindSpeedKMH mph 0.0 mph 3.2 mph
Rafales: WindSpeedGustKMH mph - -
Vent:- - West
Pression: PressurehPa in 0.0 in -
Précipitation: 3.3 in    
Historical Graphs
 
 
Données statistiques pour Décembre 16, 2017
Heure Température Point de rosée Pression Vent Vitesse du vent Refales Humidité Pluie (taux horaire)
TemperatureC °F DewpointC °F PressurehPa in Calm     Humidity % HourlyPrecipMM in
00:01 3.2 °F 3.0 °F 1003.9 in Calm   4.3 mph 98 % 0.0 in
00:06 3.2 °F 3.0 °F 1003.9 in Calm   4.0 mph 98 % 0.0 in
00:08 3.2 °F 3.0 °F 1003.9 in Calm   4.0 mph 98 % 0.0 in
00:10 3.8 °F 4.0 °F 1003.9 in Calm   7.6 mph 98 % 0.0 in
00:14 3.8 °F 4.0 °F 1005.0 in Calm   7.6 mph 98 % 0.0 in
00:17 3.8 °F 4.0 °F 1005.0 in Calm   7.6 mph 98 % 0.0 in
00:22 3.8 °F 4.0 °F 1005.0 in NNW 6.9 mph 6.9 mph 98 % 0.0 in
00:24 3.8 °F 4.0 °F 1005.0 in West 5.8 mph 10.1 mph 98 % 0.0 in
00:28 3.8 °F 4.0 °F 1005.0 in WNW 9.7 mph 10.1 mph 98 % 0.0 in
00:29 3.8 °F 4.0 °F 1005.0 in NW 6.4 mph 10.1 mph 98 % 0.0 in
00:34 3.8 °F 4.0 °F 1005.0 in NW 5.5 mph 10.1 mph 98 % 0.0 in
00:35 3.8 °F 4.0 °F 1005.0 in North 6.9 mph 10.1 mph 98 % 0.0 in
00:40 3.8 °F 4.0 °F 1005.0 in Calm   12.6 mph 98 % 0.0 in
00:45 3.8 °F 4.0 °F 1005.0 in WNW 1.8 mph 12.6 mph 98 % 0.0 in
00:47 3.8 °F 4.0 °F 1005.0 in Calm   12.6 mph 98 % 0.0 in
00:52 3.8 °F 4.0 °F 1005.0 in Calm   6.1 mph 98 % 0.0 in
00:57 3.8 °F 4.0 °F 1005.0 in Calm   5.5 mph 98 % 0.3 in
01:01 3.8 °F 4.0 °F 1005.0 in Calm   4.0 mph 98 % 0.3 in
01:02 3.8 °F 4.0 °F 1005.0 in Calm   4.0 mph 98 % 0.3 in
01:07 3.8 °F 4.0 °F 1005.0 in NNW 1.4 mph 7.2 mph 98 % 0.3 in
01:09 3.8 °F 4.0 °F 1005.0 in Calm   7.2 mph 98 % 0.5 in
01:13 3.8 °F 4.0 °F 1003.9 in Calm   6.4 mph 98 % 0.5 in
01:19 3.8 °F 4.0 °F 1003.9 in NW 2.6 mph 6.4 mph 98 % 0.5 in
01:20 3.8 °F 4.0 °F 1003.9 in Calm   6.4 mph 98 % 0.5 in
01:24 3.8 °F 4.0 °F 1003.9 in Calm   2.6 mph 98 % 0.5 in
01:29 3.8 °F 4.0 °F 1005.0 in West 6.1 mph 6.1 mph 98 % 0.5 in
01:32 3.8 °F 4.0 °F 1005.0 in NNW 4.7 mph 6.1 mph 98 % 0.5 in
01:35 3.8 °F 4.0 °F 1005.0 in Calm   6.1 mph 98 % 0.5 in
01:38 3.8 °F 4.0 °F 1005.0 in Calm   6.1 mph 98 % 0.5 in
01:40 3.8 °F 4.0 °F 1005.0 in Calm   6.1 mph 98 % 0.5 in
01:45 3.8 °F 4.0 °F 1005.0 in Calm   1.4 mph 98 % 0.5 in
01:46 3.8 °F 4.0 °F 1005.0 in Calm   1.4 mph 98 % 0.5 in
01:51 3.8 °F 4.0 °F 1005.0 in Calm   1.4 mph 98 % 0.5 in
01:53 3.8 °F 4.0 °F 1005.0 in Calm   1.4 mph 98 % 0.5 in
01:55 3.8 °F 4.0 °F 1005.0 in Calm   1.4 mph 98 % 0.8 in
01:58 3.8 °F 4.0 °F 1005.0 in Calm   1.4 mph 98 % 0.5 in
02:03 3.8 °F 4.0 °F 1005.0 in Calm     98 % 0.5 in
02:05 3.8 °F 4.0 °F 1005.0 in Calm     98 % 0.5 in
02:07 3.8 °F 4.0 °F 1005.0 in Calm     98 % 0.5 in
02:12 3.8 °F 4.0 °F 1006.0 in Calm   1.4 mph 98 % 0.3 in
02:13 3.8 °F 4.0 °F 1006.0 in Calm   1.4 mph 98 % 0.3 in
02:16 3.8 °F 4.0 °F 1006.0 in Calm   1.8 mph 98 % 0.3 in
02:20 3.8 °F 4.0 °F 1006.0 in Calm   7.2 mph 98 % 0.3 in
02:22 3.8 °F 4.0 °F 1006.0 in Calm   7.2 mph 98 % 0.3 in
02:25 3.8 °F 4.0 °F 1006.0 in Calm   7.2 mph 98 % 0.3 in
02:30 3.8 °F 4.0 °F 1006.0 in Calm   1.4 mph 98 % 0.3 in
02:35 3.8 °F 4.0 °F 1006.0 in Calm     98 % 0.3 in
02:36 3.8 °F 4.0 °F 1006.0 in Calm   3.5 mph 98 % 0.3 in
02:37 3.8 °F 4.0 °F 1006.0 in Calm   3.5 mph 98 % 0.3 in
02:42 3.8 °F 4.0 °F 1006.0 in Calm   3.5 mph 98 % 0.3 in
02:47 3.8 °F 4.0 °F 1006.0 in Calm     98 % 0.3 in
02:48 3.8 °F 4.0 °F 1006.0 in Calm     98 % 0.3 in
02:53 3.8 °F 4.0 °F 1006.0 in Calm     98 % 0.3 in
02:55 3.8 °F 4.0 °F 1006.0 in Calm   3.5 mph 98 % 0.0 in
03:02 0.0 °F 4.0 °F 0.0 in Calm   3.5 mph 0 % 0.0 in
03:03 0.0 °F 4.0 °F 1006.0 in Calm   3.5 mph 0 % 0.0 in
03:08 0.0 °F 4.0 °F 1006.0 in NNW 1.4 mph 3.5 mph 0 % 0.0 in
03:10 0.0 °F 4.0 °F 1006.0 in Calm   3.5 mph 0 % 0.0 in
03:15 0.0 °F 4.0 °F 1007.0 in Calm   4.0 mph 0 % 0.0 in
03:16 0.0 °F 4.0 °F 1007.0 in Calm   4.0 mph 0 % 0.0 in
03:21 0.0 °F 4.0 °F 1007.0 in Calm     0 % 0.0 in
03:25 0.0 °F 4.0 °F 1007.0 in Calm   4.0 mph 0 % 0.0 in
03:30 0.0 °F 4.0 °F 1007.0 in Calm   5.5 mph 0 % 0.0 in
03:31 0.0 °F 4.0 °F 1007.0 in Calm   5.5 mph 0 % 0.0 in
03:36 0.0 °F 4.0 °F 1007.0 in NNE 5.0 mph 9.3 mph 0 % 0.0 in
03:38 0.0 °F 4.0 °F 1007.0 in NE 2.1 mph 9.3 mph 0 % 0.0 in
03:40 0.0 °F 4.0 °F 1007.0 in North 12.2 mph 17.7 mph 0 % 0.0 in
03:44 0.0 °F 4.0 °F 1007.0 in North 5.8 mph 17.7 mph 0 % 0.0 in
03:49 0.0 °F 4.0 °F 1007.0 in Calm   17.7 mph 0 % 0.0 in
03:50 0.0 °F 4.0 °F 1007.0 in North 4.7 mph 17.7 mph 0 % 0.0 in
03:56 0.0 °F 4.0 °F 1007.0 in North 5.0 mph 12.2 mph 0 % 0.0 in
04:00 0.0 °F 4.0 °F 1007.0 in NNW 6.9 mph 14.0 mph 0 % 0.0 in
04:05 0.0 °F 4.0 °F 1007.0 in North 4.7 mph 14.0 mph 0 % 0.0 in
04:07 0.0 °F 4.0 °F 1007.0 in Calm   14.0 mph 0 % 0.0 in
04:12 0.0 °F 4.0 °F 1007.0 in NNE 5.0 mph 9.0 mph 0 % 0.0 in
04:17 0.0 °F 4.0 °F 1007.0 in NNE 8.7 mph 9.3 mph 0 % 0.0 in
04:18 0.0 °F 4.0 °F 1007.0 in NNW 2.6 mph 9.3 mph 0 % 0.0 in
04:23 0.0 °F 4.0 °F 1007.0 in North 4.0 mph 12.2 mph 0 % 0.0 in
04:26 0.0 °F 4.0 °F 1007.0 in WNW 2.6 mph 12.2 mph 0 % 0.0 in
04:28 0.0 °F 4.0 °F 1007.0 in Calm   12.2 mph 0 % 0.0 in
04:33 0.0 °F 4.0 °F 1007.0 in Calm   7.9 mph 0 % 0.0 in
04:34 0.0 °F 4.0 °F 1007.0 in NNE 3.2 mph 7.9 mph 0 % 0.0 in
04:39 0.0 °F 4.0 °F 1007.0 in Calm   7.9 mph 0 % 0.0 in
04:40 0.0 °F 4.0 °F 1008.0 in Calm   7.9 mph 0 % 0.0 in
04:45 0.0 °F 4.0 °F 1008.0 in West 5.0 mph 9.7 mph 0 % 0.0 in
04:46 0.0 °F 4.0 °F 1008.0 in NW 1.4 mph 9.7 mph 0 % 0.0 in
04:48 0.0 °F 4.0 °F 1008.0 in Calm   9.7 mph 0 % 0.0 in
04:53 0.0 °F 4.0 °F 1008.0 in Calm   11.9 mph 0 % 0.0 in
04:56 0.0 °F 4.0 °F 1009.0 in North 5.0 mph 13.0 mph 0 % 0.0 in
05:01 0.0 °F 4.0 °F 1009.0 in NE 1.8 mph 13.0 mph 0 % 0.0 in
05:04 0.0 °F 4.0 °F 1009.0 in NNW 6.4 mph 13.0 mph 0 % 0.0 in
05:06 0.0 °F 4.0 °F 1009.0 in Calm   10.5 mph 0 % 0.0 in
05:09 0.0 °F 4.0 °F 1009.0 in West 1.4 mph 9.3 mph 0 % 0.0 in
05:14 0.0 °F 4.0 °F 1009.0 in Calm   5.8 mph 0 % 0.0 in
05:15 0.0 °F 4.0 °F 1009.0 in Calm   5.8 mph 0 % 0.0 in
05:19 0.0 °F 4.0 °F 1009.0 in NNW 6.4 mph 6.4 mph 0 % 0.0 in
05:22 0.0 °F 4.0 °F 1009.0 in NNW 2.6 mph 6.4 mph 0 % 0.0 in
05:27 0.0 °F 4.0 °F 1009.0 in Calm   6.9 mph 0 % 0.0 in
05:29 0.0 °F 4.0 °F 1009.0 in Calm   7.6 mph 0 % 0.0 in
05:34 0.0 °F 4.0 °F 1009.0 in North 1.4 mph 7.6 mph 0 % 0.0 in
05:37 0.0 °F 4.0 °F 1009.0 in NNW 3.2 mph 9.0 mph 0 % 0.0 in
05:42 0.0 °F 4.0 °F 1009.0 in NW 1.4 mph 10.5 mph 0 % 0.0 in
05:43 0.0 °F 4.0 °F 1009.0 in Calm   10.5 mph 0 % 0.0 in
05:45 0.0 °F 4.0 °F 1009.0 in Calm   10.5 mph 0 % 0.0 in
05:49 0.0 °F 4.0 °F 1009.0 in Calm   9.7 mph 0 % 0.0 in
05:53 0.0 °F 4.0 °F 1009.0 in NW 4.0 mph 5.8 mph 0 % 0.0 in
05:55 0.0 °F 4.0 °F 1009.0 in Calm   4.0 mph 0 % 0.0 in
06:00 0.0 °F 4.0 °F 1009.0 in Calm   7.6 mph 0 % 0.0 in
06:02 0.0 °F 4.0 °F 1009.0 in NNW 3.5 mph 7.6 mph 0 % 0.0 in
06:07 0.0 °F 4.0 °F 1009.0 in Calm   7.6 mph 0 % 0.0 in
06:08 0.0 °F 4.0 °F 1009.0 in Calm   7.6 mph 0 % 0.0 in
06:13 0.0 °F 4.0 °F 1009.0 in North 4.0 mph 12.2 mph 0 % 0.0 in
06:16 0.0 °F 4.0 °F 1009.0 in Calm   12.2 mph 0 % 0.0 in
06:17 0.0 °F 4.0 °F 1009.0 in WNW 2.6 mph 12.2 mph 0 % 0.0 in
06:22 0.0 °F 4.0 °F 1009.0 in Calm   6.9 mph 0 % 0.0 in
06:24 0.0 °F 4.0 °F 1009.0 in Calm   6.9 mph 0 % 0.0 in
06:29 0.0 °F 4.0 °F 1009.0 in Calm   6.4 mph 0 % 0.0 in
06:31 0.0 °F 4.0 °F 1009.0 in Calm   9.0 mph 0 % 0.0 in
06:36 0.0 °F 4.0 °F 1009.0 in NE 2.1 mph 9.0 mph 0 % 0.0 in
06:37 0.0 °F 4.0 °F 1009.0 in Calm   9.0 mph 0 % 0.0 in
06:42 0.0 °F 4.0 °F 1009.0 in Calm   7.6 mph 0 % 0.0 in
06:45 0.0 °F 4.0 °F 1009.0 in Calm   3.5 mph 0 % 0.0 in
06:49 0.0 °F 4.0 °F 1009.0 in Calm     0 % 0.0 in
06:54 0.0 °F 4.0 °F 1009.0 in Calm     0 % 0.0 in
06:59 0.0 °F 4.0 °F 1010.0 in West 6.4 mph 6.4 mph 0 % 0.0 in
07:01 0.0 °F 4.0 °F 1010.0 in Calm   6.4 mph 0 % 0.0 in
07:04 0.0 °F 4.0 °F 1010.0 in WNW 5.5 mph 7.9 mph 0 % 0.0 in
07:09 0.0 °F 4.0 °F 1010.0 in SSW 3.2 mph 7.9 mph 0 % 0.0 in
07:10 0.0 °F 4.0 °F 1010.0 in WNW 1.8 mph 7.9 mph 0 % 0.0 in
07:14 0.0 °F 4.0 °F 1010.0 in Calm   6.9 mph 0 % 0.0 in
07:18 0.0 °F 4.0 °F 1010.0 in WNW 4.3 mph 6.9 mph 0 % 0.0 in
07:23 0.0 °F 4.0 °F 1010.0 in NNW 2.1 mph 6.1 mph 0 % 0.0 in
07:24 0.0 °F 4.0 °F 1010.0 in Calm   6.1 mph 0 % 0.0 in
07:29 0.0 °F 4.0 °F 1010.0 in Calm   5.0 mph 0 % 0.0 in
07:33 0.0 °F 4.0 °F 1010.0 in South 1.8 mph 5.8 mph 0 % 0.0 in
07:38 0.0 °F 4.0 °F 1010.0 in Calm   8.7 mph 0 % 0.0 in
07:42 0.0 °F 4.0 °F 1011.1 in Calm   8.7 mph 0 % 0.0 in
07:46 0.0 °F 4.0 °F 1011.1 in NW 2.1 mph 10.1 mph 0 % 0.0 in
07:51 0.0 °F 4.0 °F 1011.1 in Calm   10.1 mph 0 % 0.0 in
07:53 0.0 °F 4.0 °F 1011.1 in WNW 4.3 mph 10.1 mph 0 % 0.0 in
07:58 4.4 °F 4.0 °F 1011.1 in Calm   12.6 mph 98 % 0.0 in
08:03 4.4 °F 4.0 °F 1011.1 in West 2.1 mph 12.2 mph 98 % 0.0 in
08:04 4.4 °F 4.0 °F 1011.1 in Calm   12.2 mph 98 % 0.0 in
08:08 4.4 °F 4.0 °F 1011.1 in WNW 3.2 mph 10.1 mph 98 % 0.0 in
08:11 4.4 °F 4.0 °F 1010.0 in NNW 3.2 mph 9.7 mph 98 % 0.0 in
08:14 4.4 °F 4.0 °F 1010.0 in Calm   9.7 mph 98 % 0.0 in
08:17 4.4 °F 4.0 °F 1010.0 in Calm   7.9 mph 98 % 0.0 in
08:22 4.4 °F 4.0 °F 1010.0 in Calm   7.9 mph 98 % 0.0 in
08:23 4.4 °F 4.0 °F 1010.0 in Calm   7.9 mph 98 % 0.0 in
08:28 4.4 °F 4.0 °F 1011.1 in West 4.3 mph 5.8 mph 98 % 0.0 in
08:32 4.4 °F 4.0 °F 1011.1 in West 8.7 mph 8.7 mph 98 % 0.0 in
08:37 4.4 °F 4.0 °F 1011.1 in Calm   10.1 mph 98 % 0.0 in
08:40 4.4 °F 4.0 °F 1011.1 in Calm   10.1 mph 98 % 0.0 in
08:43 4.4 °F 4.0 °F 1011.1 in Calm   8.7 mph 98 % 0.0 in
08:46 4.4 °F 4.0 °F 1011.1 in North 1.8 mph 8.7 mph 98 % 0.0 in
08:51 4.4 °F 4.0 °F 1011.1 in NNW 1.4 mph 9.3 mph 98 % 0.0 in
08:52 4.4 °F 4.0 °F 1011.1 in Calm   9.3 mph 98 % 0.0 in
08:57 4.4 °F 4.0 °F 1012.1 in Calm   12.6 mph 98 % 0.0 in
09:00 4.4 °F 4.0 °F 1012.1 in Calm   12.6 mph 98 % 0.0 in
09:05 4.2 °F 4.0 °F 1012.1 in Calm   5.8 mph 98 % 0.0 in
09:07 4.2 °F 4.0 °F 1012.1 in Calm   5.8 mph 98 % 0.0 in
09:13 4.3 °F 4.0 °F 1013.1 in WNW 4.3 mph 6.9 mph 98 % 0.0 in
09:18 4.3 °F 4.0 °F 1013.1 in NNW 5.0 mph 6.9 mph 98 % 0.0 in
09:19 4.3 °F 4.0 °F 1013.1 in NNE 4.3 mph 6.9 mph 98 % 0.0 in
09:24 4.3 °F 4.0 °F 1013.1 in Calm   14.0 mph 98 % 0.0 in
09:25 4.3 °F 4.0 °F 1013.1 in West 2.6 mph 14.0 mph 98 % 0.0 in
09:30 4.3 °F 4.0 °F 1013.1 in East 3.5 mph 10.1 mph 98 % 0.0 in
09:32 4.3 °F 4.0 °F 1013.1 in West 6.4 mph 7.6 mph 98 % 0.0 in
09:37 4.3 °F 4.0 °F 1013.1 in NW 1.8 mph 10.1 mph 98 % 0.0 in
09:42 4.4 °F 4.0 °F 1013.1 in Calm   11.9 mph 98 % 0.0 in
09:43 4.4 °F 4.0 °F 1013.1 in WNW 1.4 mph 11.9 mph 98 % 0.0 in
09:48 4.4 °F 4.0 °F 1013.1 in Calm   9.7 mph 98 % 0.0 in
09:49 4.4 °F 4.0 °F 1013.1 in NW 4.3 mph 9.7 mph 98 % 0.0 in
09:53 4.5 °F 5.0 °F 1013.1 in Calm   9.7 mph 98 % 0.0 in
09:58 4.6 °F 5.0 °F 1013.1 in Calm   8.7 mph 98 % 0.0 in
10:03 4.6 °F 5.0 °F 1013.1 in WSW 3.2 mph 11.9 mph 98 % 0.0 in
10:05 4.6 °F 5.0 °F 1013.1 in WNW 7.2 mph 11.9 mph 98 % 0.0 in
10:06 4.6 °F 5.0 °F 1013.1 in Calm   11.9 mph 98 % 0.0 in
10:11 4.5 °F 5.0 °F 1013.1 in Calm   9.7 mph 98 % 0.0 in
10:13 4.5 °F 5.0 °F 1013.1 in NNW 5.5 mph 15.1 mph 98 % 0.0 in
10:18 4.5 °F 5.0 °F 1013.1 in West 5.8 mph 15.1 mph 98 % 0.0 in
10:19 4.5 °F 5.0 °F 1013.1 in WSW 9.3 mph 15.1 mph 98 % 0.0 in
10:25 4.6 °F 5.0 °F 1013.1 in NW 10.1 mph 12.2 mph 98 % 0.0 in
10:26 4.6 °F 5.0 °F 1014.1 in West 7.9 mph 12.2 mph 98 % 0.0 in
10:32 4.6 °F 5.0 °F 1014.1 in West 1.4 mph 12.2 mph 98 % 0.0 in
10:35 4.6 °F 5.0 °F 1014.1 in West 6.9 mph 12.2 mph 98 % 0.0 in
10:40 4.6 °F 5.0 °F 1014.1 in NW 3.2 mph 11.9 mph 98 % 0.0 in
10:41 4.6 °F 5.0 °F 1014.1 in NNW 1.4 mph 11.9 mph 98 % 0.0 in
10:46 5.1 °F 5.0 °F 1014.1 in NW 3.2 mph 15.1 mph 98 % 0.0 in
10:47 5.1 °F 5.0 °F 1014.1 in Calm   15.1 mph 98 % 0.0 in
10:52 5.0 °F 5.0 °F 1014.1 in West 4.0 mph 15.1 mph 98 % 0.0 in
10:53 5.0 °F 5.0 °F 1014.1 in West 8.7 mph 15.1 mph 98 % 0.0 in
10:58 5.0 °F 5.0 °F 1014.1 in West 1.4 mph 12.6 mph 98 % 0.0 in
10:59 5.0 °F 5.0 °F 1014.1 in NW 5.0 mph 10.5 mph 98 % 0.0 in
11:04 4.9 °F 5.0 °F 1014.1 in WNW 7.9 mph 11.9 mph 98 % 0.0 in
11:05 4.9 °F 5.0 °F 1014.1 in West 2.1 mph 11.9 mph 98 % 0.0 in
11:07 5.1 °F 5.0 °F 1014.1 in NNW 5.0 mph 11.9 mph 98 % 0.0 in
11:11 5.1 °F 5.0 °F 1015.1 in WNW 10.1 mph 12.2 mph 98 % 0.0 in
11:13 5.1 °F 5.0 °F 1015.1 in WNW 6.9 mph 12.2 mph 98 % 0.0 in
11:18 5.6 °F 6.0 °F 1015.1 in SW 10.1 mph 12.2 mph 98 % 0.0 in
11:20 5.6 °F 6.0 °F 1015.1 in WSW 5.0 mph 11.9 mph 98 % 0.0 in
11:25 5.5 °F 6.0 °F 1015.1 in West 2.6 mph 12.6 mph 98 % 0.0 in
11:26 5.5 °F 6.0 °F 1015.1 in WNW 2.6 mph 12.6 mph 98 % 0.0 in
11:31 5.5 °F 6.0 °F 1015.1 in NNW 5.5 mph 15.1 mph 98 % 0.0 in
11:32 5.4 °F 6.0 °F 1015.1 in NW 6.4 mph 15.1 mph 98 % 0.0 in
11:35 5.4 °F 6.0 °F 1015.1 in WNW 7.9 mph 15.1 mph 98 % 0.0 in
11:38 5.4 °F 6.0 °F 1015.1 in West 4.3 mph 15.1 mph 98 % 0.0 in
11:43 5.3 °F 6.0 °F 1016.1 in WNW 9.3 mph 11.1 mph 98 % 0.0 in
11:44 5.3 °F 6.0 °F 1016.1 in NNE 4.3 mph 10.5 mph 98 % 0.0 in
11:49 5.3 °F 6.0 °F 1016.1 in WNW 3.5 mph 9.7 mph 98 % 0.0 in
11:53 5.3 °F 6.0 °F 1016.1 in Calm   9.0 mph 98 % 0.0 in
11:58 5.3 °F 6.0 °F 1015.1 in West 4.3 mph 9.3 mph 98 % 0.0 in
12:03 5.2 °F 5.0 °F 1015.1 in WNW 4.7 mph 9.3 mph 98 % 0.0 in
12:08 5.1 °F 5.0 °F 1015.1 in West 3.5 mph 7.9 mph 98 % 0.0 in
12:09 5.1 °F 5.0 °F 1015.1 in West 2.6 mph 7.9 mph 98 % 0.0 in
12:13 5.1 °F 5.0 °F 1015.1 in West 9.3 mph 9.3 mph 98 % 0.0 in
12:18 5.1 °F 5.0 °F 1015.1 in NW 8.7 mph 12.6 mph 98 % 0.0 in
12:24 5.1 °F 5.0 °F 1015.1 in North 9.3 mph 13.0 mph 98 % 0.0 in
12:25 5.1 °F 5.0 °F 1015.1 in North 4.0 mph 13.0 mph 98 % 0.0 in
12:30 5.3 °F 6.0 °F 1015.1 in SSW 6.1 mph 9.7 mph 98 % 0.0 in
12:31 5.3 °F 6.0 °F 1015.1 in West 3.5 mph 10.1 mph 98 % 0.0 in
12:36 5.4 °F 6.0 °F 1015.1 in WNW 5.0 mph 10.5 mph 98 % 0.0 in
12:38 5.4 °F 6.0 °F 1015.1 in NW 9.0 mph 10.5 mph 98 % 0.0 in
12:40 5.4 °F 6.0 °F 1015.1 in NNW 6.9 mph 11.1 mph 98 % 0.0 in
12:44 5.5 °F 6.0 °F 1015.1 in SSW 9.3 mph 12.6 mph 97 % 0.0 in
12:49 5.7 °F 6.0 °F 1015.1 in West 8.7 mph 13.7 mph 97 % 0.0 in
12:50 5.7 °F 6.0 °F 1015.1 in North 6.1 mph 13.7 mph 97 % 0.0 in
12:55 6.1 °F 6.0 °F 1015.1 in WNW 2.6 mph 13.7 mph 97 % 0.0 in
13:00 6.1 °F 6.0 °F 1015.1 in West 9.0 mph 14.0 mph 96 % 0.0 in
13:02 6.0 °F 6.0 °F 1015.1 in West 2.6 mph 14.0 mph 96 % 0.0 in
13:06 6.0 °F 6.0 °F 1015.1 in SW 7.9 mph 14.0 mph 95 % 0.0 in
13:08 6.0 °F 6.0 °F 1015.1 in NW 9.3 mph 14.0 mph 95 % 0.0 in
13:13 5.8 °F 5.0 °F 1015.1 in North 5.0 mph 15.8 mph 94 % 0.0 in
13:14 5.8 °F 5.0 °F 1015.1 in West 10.1 mph 15.8 mph 93 % 0.0 in
13:16 5.8 °F 5.0 °F 1015.1 in West 1.4 mph 15.8 mph 93 % 0.0 in
13:21 5.8 °F 5.0 °F 1015.1 in SSW 9.3 mph 17.2 mph 92 % 0.0 in
13:23 5.8 °F 5.0 °F 1015.1 in WNW 11.6 mph 20.1 mph 92 % 0.0 in
13:27 5.7 °F 5.0 °F 1015.1 in WNW 4.3 mph 20.1 mph 92 % 0.0 in
13:29 5.7 °F 5.0 °F 1015.1 in West 10.1 mph 20.1 mph 92 % 0.0 in
13:34 5.8 °F 5.0 °F 1015.1 in NNW 10.1 mph 12.2 mph 93 % 0.0 in
13:37 5.8 °F 5.0 °F 1015.1 in West 2.6 mph 10.1 mph 93 % 0.0 in
13:42 5.7 °F 5.0 °F 1015.1 in WNW 4.3 mph 10.1 mph 93 % 0.0 in
13:43 5.7 °F 5.0 °F 1015.1 in West 2.1 mph 10.1 mph 93 % 0.0 in
13:44 5.7 °F 5.0 °F 1015.1 in West 6.1 mph 9.0 mph 93 % 0.0 in
13:49 5.6 °F 5.0 °F 1015.1 in North 7.9 mph 11.9 mph 93 % 0.0 in
13:50 5.6 °F 5.0 °F 1015.1 in NW 7.9 mph 11.9 mph 92 % 0.0 in
13:51 5.6 °F 5.0 °F 1015.1 in West 4.7 mph 11.9 mph 92 % 0.0 in
13:56 5.6 °F 5.0 °F 1015.1 in NW 5.8 mph 11.9 mph 92 % 0.0 in
14:01 5.5 °F 5.0 °F 1015.1 in West 16.6 mph 16.9 mph 91 % 0.0 in
14:02 5.5 °F 5.0 °F 1015.1 in West 13.7 mph 16.9 mph 91 % 0.0 in
14:04 5.4 °F 4.0 °F 1015.1 in NNW 14.0 mph 16.9 mph 90 % 0.0 in
14:08 5.5 °F 4.0 °F 1015.1 in West 8.7 mph 16.9 mph 90 % 0.0 in
14:10 5.5 °F 4.0 °F 1015.1 in WNW 9.7 mph 16.9 mph 90 % 0.0 in
14:15 5.4 °F 4.0 °F 1015.1 in NNW 10.1 mph 15.1 mph 89 % 0.0 in
14:19 5.4 °F 4.0 °F 1015.1 in NNW 11.1 mph 13.0 mph 89 % 0.0 in
14:24 5.5 °F 4.0 °F 1015.1 in SSW 11.9 mph 15.4 mph 89 % 0.0 in
14:26 5.7 °F 4.0 °F 1015.1 in West 4.7 mph 15.4 mph 89 % 0.0 in
14:28 5.7 °F 4.0 °F 1015.1 in NW 11.6 mph 15.4 mph 90 % 0.0 in
14:33 5.6 °F 4.0 °F 1015.1 in West 12.6 mph 16.9 mph 88 % 0.0 in
14:35 5.6 °F 4.0 °F 1015.1 in West 9.3 mph 16.9 mph 88 % 0.0 in
14:36 5.6 °F 4.0 °F 1015.1 in SSW 9.0 mph 16.9 mph 88 % 0.0 in
14:41 5.5 °F 4.0 °F 1015.1 in West 13.0 mph 16.9 mph 87 % 0.0 in
14:42 5.4 °F 4.0 °F 1015.1 in West 9.7 mph 16.9 mph 87 % 0.0 in
14:47 5.3 °F 3.0 °F 1015.1 in WNW 7.9 mph 16.6 mph 86 % 0.0 in
14:48 5.3 °F 3.0 °F 1015.1 in WNW 6.4 mph 16.6 mph 86 % 0.0 in
14:49 5.3 °F 3.0 °F 1015.1 in West 5.0 mph 15.4 mph 86 % 0.0 in
14:54 5.2 °F 3.0 °F 1015.1 in SSW 6.9 mph 12.6 mph 87 % 0.0 in
14:56 5.2 °F 3.0 °F 1015.1 in WNW 9.7 mph 12.6 mph 87 % 0.0 in
14:58 5.2 °F 3.0 °F 1015.1 in WNW 5.0 mph 12.6 mph 87 % 0.0 in
15:02 5.1 °F 3.0 °F 1015.1 in West 9.3 mph 13.0 mph 87 % 0.0 in
15:07 5.1 °F 3.0 °F 1015.1 in West 10.8 mph 17.7 mph 88 % 0.0 in
15:12 5.0 °F 3.0 °F 1016.1 in West 7.9 mph 17.7 mph 88 % 0.0 in
15:15 5.0 °F 3.0 °F 1016.1 in WNW 9.7 mph 13.7 mph 88 % 0.0 in
15:20 5.0 °F 4.0 °F 1016.1 in West 7.9 mph 12.6 mph 89 % 0.0 in
15:21 5.0 °F 4.0 °F 1016.1 in NW 3.2 mph 12.6 mph 89 % 0.0 in
15:26 5.0 °F 4.0 °F 1016.1 in WNW 1.8 mph 11.9 mph 89 % 0.0 in
15:27 5.1 °F 4.0 °F 1016.1 in WNW 7.6 mph 11.9 mph 90 % 0.0 in
15:32 5.1 °F 4.0 °F 1016.1 in WSW 6.9 mph 11.9 mph 89 % 0.0 in
15:33 5.1 °F 4.0 °F 1016.1 in West 10.1 mph 11.9 mph 89 % 0.0 in
15:38 5.0 °F 3.0 °F 1016.1 in WNW 9.0 mph 13.0 mph 88 % 0.0 in
15:39 5.0 °F 3.0 °F 1016.1 in NNW 12.6 mph 13.0 mph 88 % 0.0 in
15:45 4.8 °F 3.0 °F 1016.8 in West 2.6 mph 15.4 mph 88 % 0.0 in
15:50 4.8 °F 3.0 °F 1016.8 in WNW 6.4 mph 15.4 mph 88 % 0.0 in
15:52 4.7 °F 3.0 °F 1016.8 in West 12.6 mph 12.6 mph 88 % 0.0 in
15:57 4.6 °F 3.0 °F 1016.8 in WNW 6.4 mph 14.0 mph 88 % 0.0 in
15:59 4.6 °F 3.0 °F 1016.8 in North 7.6 mph 14.0 mph 88 % 0.0 in
16:00 4.5 °F 3.0 °F 1016.8 in West 5.0 mph 14.0 mph 88 % 0.0 in
16:05 4.4 °F 3.0 °F 1016.8 in NW 3.2 mph 14.0 mph 88 % 0.0 in
16:06 4.4 °F 3.0 °F 1016.8 in West 5.5 mph 11.6 mph 88 % 0.0 in
16:07 4.4 °F 3.0 °F 1016.8 in West 5.5 mph 12.2 mph 88 % 0.0 in
16:12 4.3 °F 3.0 °F 1016.8 in NNW 6.4 mph 12.2 mph 88 % 0.0 in
16:14 4.3 °F 3.0 °F 1016.8 in West 6.4 mph 12.2 mph 88 % 0.0 in
16:19 4.2 °F 3.0 °F 1016.8 in WSW 9.7 mph 13.7 mph 88 % 0.0 in
16:23 4.1 °F 2.0 °F 1016.8 in NNW 8.7 mph 13.7 mph 88 % 0.0 in
16:27 4.1 °F 2.0 °F 1016.8 in NW 10.8 mph 14.0 mph 88 % 0.0 in
16:32 4.0 °F 3.0 °F 1016.8 in West 7.9 mph 14.0 mph 89 % 0.0 in
16:33 3.9 °F 3.0 °F 1016.8 in West 10.5 mph 14.0 mph 89 % 0.0 in
16:35 3.9 °F 3.0 °F 1016.8 in West 9.7 mph 14.0 mph 89 % 0.0 in
16:40 3.8 °F 2.0 °F 1016.8 in West 7.6 mph 10.5 mph 89 % 0.0 in
16:41 3.7 °F 2.0 °F 1016.1 in West 2.1 mph 10.5 mph 89 % 0.0 in
16:46 3.5 °F 2.0 °F 1016.1 in WSW 3.2 mph 11.9 mph 89 % 0.0 in
16:48 3.5 °F 2.0 °F 1016.1 in West 5.8 mph 11.9 mph 89 % 0.0 in
16:54 3.3 °F 2.0 °F 1016.1 in West 4.3 mph 10.5 mph 89 % 0.0 in
16:55 3.3 °F 2.0 °F 1016.1 in West 3.2 mph 10.5 mph 89 % 0.0 in
17:00 3.1 °F 2.0 °F 1016.8 in WSW 6.4 mph 10.5 mph 89 % 0.0 in
17:02 3.0 °F 2.0 °F 1016.8 in West 3.2 mph 10.5 mph 90 % 0.0 in
17:06 2.9 °F 2.0 °F 1016.8 in West 5.5 mph 9.3 mph 90 % 0.0 in
17:11 2.7 °F 1.0 °F 1016.1 in West 5.5 mph 9.3 mph 90 % 0.0 in
17:15 2.7 °F 2.0 °F 1016.1 in West 5.5 mph 10.1 mph 91 % 0.0 in
17:16 2.7 °F 2.0 °F 1016.1 in West 5.8 mph 10.1 mph 91 % 0.0 in
17:21 2.5 °F 2.0 °F 1016.1 in West 4.7 mph 10.1 mph 91 % 0.0 in
17:23 2.4 °F 1.0 °F 1016.1 in WSW 5.0 mph 10.1 mph 91 % 0.0 in
17:26 2.4 °F 1.0 °F 1016.8 in West 3.5 mph 7.9 mph 91 % 0.0 in
17:29 2.3 °F 1.0 °F 1016.8 in West 4.7 mph 7.9 mph 91 % 0.0 in
17:34 2.3 °F 1.0 °F 1016.8 in WSW 2.6 mph 10.1 mph 92 % 0.0 in
17:36 2.3 °F 1.0 °F 1016.8 in Calm   10.1 mph 92 % 0.0 in
17:41 2.1 °F 1.0 °F 1016.8 in WNW 6.9 mph 7.9 mph 92 % 0.0 in
17:42 2.1 °F 1.0 °F 1016.8 in Calm   7.9 mph 92 % 0.0 in
17:47 2.0 °F 1.0 °F 1016.8 in West 5.5 mph 6.9 mph 92 % 0.0 in
17:52 1.8 °F 1.0 °F 1016.8 in Calm   6.1 mph 92 % 0.0 in
17:53 1.8 °F 1.0 °F 1016.8 in Calm   6.1 mph 92 % 0.0 in
17:58 1.7 °F 1.0 °F 1016.8 in WSW 6.4 mph 7.9 mph 92 % 0.0 in
17:59 1.6 °F 1.0 °F 1016.8 in Calm   7.9 mph 92 % 0.0 in
18:04 1.4 °F 0.0 °F 1016.8 in Calm   7.9 mph 92 % 0.0 in
18:09 1.2 °F 0.0 °F 1016.8 in Calm   5.5 mph 92 % 0.0 in
18:11 1.1 °F 0.0 °F 1016.8 in Calm     92 % 0.0 in
18:16 0.9 °F 0.0 °F 1016.8 in Calm     92 % 0.0 in
18:18 0.8 °F 0.0 °F 1016.8 in Calm   6.4 mph 92 % 0.0 in
18:24 0.7 °F 0.0 °F 1016.8 in West 5.8 mph 6.4 mph 92 % 0.0 in
18:26 0.7 °F 0.0 °F 1016.8 in Calm   6.4 mph 93 % 0.0 in
18:31 0.7 °F 0.0 °F 1016.8 in WSW 6.9 mph 7.6 mph 94 % 0.0 in
18:32 0.7 °F 0.0 °F 1016.8 in West 6.4 mph 7.6 mph 94 % 0.0 in
18:37 0.7 °F 0.0 °F 1016.8 in Calm   7.6 mph 94 % 0.0 in
18:38 0.7 °F 0.0 °F 1016.8 in Calm   7.6 mph 94 % 0.0 in
18:43 0.7 °F 0.0 °F 1018.2 in Calm   5.8 mph 95 % 0.0 in
18:46 0.6 °F 0.0 °F 1018.2 in Calm   5.0 mph 95 % 0.0 in
18:51 0.6 °F 0.0 °F 1018.2 in Calm     95 % 0.0 in
18:54 0.6 °F 0.0 °F 1018.2 in Calm     95 % 0.0 in
18:59 0.5 °F 0.0 °F 1018.2 in Calm     95 % 0.0 in
19:01 0.5 °F 0.0 °F 1018.2 in Calm     95 % 0.0 in
19:05 0.5 °F 0.0 °F 1018.2 in Calm     95 % 0.0 in
19:10 0.5 °F 1.0 °F 1018.2 in Calm     96 % 0.0 in
19:12 0.5 °F 1.0 °F 1018.2 in Calm     96 % 0.0 in
19:18 0.5 °F 1.0 °F 1018.2 in Calm     96 % 0.0 in
19:22 0.6 °F 1.0 °F 1018.2 in West 6.1 mph 8.7 mph 97 % 0.0 in
19:27 0.6 °F 1.0 °F 1018.2 in Calm   8.7 mph 97 % 0.0 in
19:32 0.5 °F 1.0 °F 1018.2 in Calm   7.9 mph 97 % 0.0 in
19:37 0.4 °F 0.0 °F 1018.2 in Calm   6.4 mph 97 % 0.0 in
19:40 0.4 °F 0.0 °F 1018.2 in West 6.4 mph 6.4 mph 97 % 0.0 in
19:43 0.4 °F 0.0 °F 1018.2 in Calm   6.4 mph 97 % 0.0 in
19:45 0.4 °F 0.0 °F 1018.2 in Calm   6.4 mph 97 % 0.0 in
19:49 0.4 °F 0.0 °F 1018.2 in West 4.3 mph 6.4 mph 97 % 0.0 in
19:52 0.4 °F 0.0 °F 1018.2 in West 2.6 mph 8.7 mph 97 % 0.0 in
19:57 0.4 °F 0.0 °F 1018.2 in WSW 5.8 mph 8.7 mph 97 % 0.0 in
20:03 0.5 °F 1.0 °F 1018.2 in WSW 6.9 mph 8.7 mph 97 % 0.0 in
20:04 0.5 °F 1.0 °F 1018.2 in West 3.5 mph 8.7 mph 97 % 0.0 in
20:09 0.4 °F 0.0 °F 1018.2 in West 5.8 mph 6.9 mph 97 % 0.0 in
20:13 0.4 °F 1.0 °F 1018.2 in Calm   6.9 mph 98 % 0.0 in
20:18 0.4 °F 1.0 °F 1018.2 in Calm   6.4 mph 98 % 0.0 in
20:22 0.4 °F 1.0 °F 1018.2 in West 5.8 mph 7.9 mph 98 % 0.0 in
20:23 0.4 °F 1.0 °F 1018.2 in West 4.7 mph 7.9 mph 98 % 0.0 in
20:28 0.3 °F 1.0 °F 1018.8 in West 4.7 mph 7.9 mph 98 % 0.0 in
20:29 0.3 °F 1.0 °F 1018.8 in WSW 6.4 mph 7.9 mph 98 % 0.0 in
20:34 0.3 °F 0.0 °F 1018.8 in Calm   6.9 mph 97 % 0.0 in
20:35 0.2 °F 0.0 °F 1018.8 in Calm   6.9 mph 97 % 0.0 in
20:39 0.2 °F 0.0 °F 1018.8 in Calm   6.4 mph 97 % 0.0 in
20:41 0.2 °F 0.0 °F 1018.8 in Calm   7.6 mph 97 % 0.0 in
20:46 0.1 °F 0.0 °F 1018.8 in Calm   7.6 mph 97 % 0.0 in
20:51 0.1 °F 0.0 °F 1018.8 in West 4.0 mph 6.9 mph 98 % 0.0 in
20:52 0.1 °F 0.0 °F 1018.8 in Calm   6.9 mph 98 % 0.0 in
20:53 0.1 °F 0.0 °F 1018.8 in Calm   6.9 mph 98 % 0.0 in
20:58 0.2 °F 0.0 °F 1018.8 in Calm   6.9 mph 98 % 0.0 in
21:02 0.2 °F 0.0 °F 1018.8 in WSW 2.1 mph 6.4 mph 98 % 0.0 in
21:07 0.2 °F 0.0 °F 1018.8 in Calm   6.4 mph 98 % 0.0 in
21:09 0.2 °F 0.0 °F 1018.8 in WSW 5.5 mph 6.4 mph 98 % 0.0 in
21:14 0.2 °F 0.0 °F 1018.8 in Calm   6.9 mph 98 % 0.0 in
21:18 0.3 °F 1.0 °F 1018.8 in WSW 5.8 mph 6.9 mph 98 % 0.0 in
21:21 0.3 °F 1.0 °F 1018.8 in WSW 6.4 mph 6.4 mph 98 % 0.0 in
21:24 0.3 °F 1.0 °F 1018.8 in Calm   6.4 mph 98 % 0.0 in
21:28 0.3 °F 1.0 °F 1018.8 in Calm   6.4 mph 98 % 0.0 in
21:33 0.2 °F 0.0 °F 1018.8 in Calm   6.4 mph 98 % 0.0 in
21:38 0.3 °F 1.0 °F 1018.8 in WSW 5.8 mph 6.4 mph 98 % 0.0 in
21:42 0.4 °F 1.0 °F 1018.8 in Calm   6.4 mph 98 % 0.0 in
21:47 0.4 °F 1.0 °F 1018.8 in West 6.9 mph 6.9 mph 98 % 0.0 in
21:52 0.4 °F 1.0 °F 1018.8 in West 6.1 mph 8.7 mph 98 % 0.0 in
21:57 0.4 °F 1.0 °F 1018.8 in Calm   8.7 mph 98 % 0.0 in
21:58 0.4 °F 1.0 °F 1018.8 in WSW 4.0 mph 8.7 mph 98 % 0.0 in
22:04 0.5 °F 1.0 °F 1018.8 in West 4.3 mph 6.9 mph 98 % 0.0 in
22:09 0.5 °F 1.0 °F 1018.8 in Calm   6.9 mph 98 % 0.0 in
22:13 0.5 °F 1.0 °F 1018.8 in West 6.4 mph 6.9 mph 98 % 0.0 in
22:14 0.6 °F 1.0 °F 1018.8 in West 5.8 mph 6.9 mph 98 % 0.0 in
22:18 0.6 °F 1.0 °F 1018.8 in West 6.1 mph 7.9 mph 98 % 0.0 in
22:20 0.6 °F 1.0 °F 1018.8 in WSW 6.4 mph 7.9 mph 98 % 0.0 in
22:23 0.7 °F 1.0 °F 1018.8 in Calm   7.9 mph 98 % 0.0 in
22:24 0.7 °F 1.0 °F 1018.8 in Calm   7.9 mph 98 % 0.0 in
22:29 0.7 °F 1.0 °F 1018.8 in Calm   7.6 mph 98 % 0.0 in
22:31 0.7 °F 1.0 °F 1018.8 in Calm   6.1 mph 98 % 0.0 in
22:36 0.7 °F 1.0 °F 1018.8 in Calm   6.1 mph 98 % 0.0 in
22:39 0.6 °F 1.0 °F 1018.8 in Calm     98 % 0.0 in
22:44 0.5 °F 1.0 °F 1018.8 in Calm     98 % 0.0 in
22:45 0.5 °F 1.0 °F 1018.8 in Calm     98 % 0.0 in
22:50 0.4 °F 1.0 °F 1018.8 in Calm     98 % 0.0 in
22:55 0.4 °F 1.0 °F 1018.8 in Calm     98 % 0.0 in
22:57 0.4 °F 1.0 °F 1018.8 in Calm     98 % 0.0 in
23:01 0.4 °F 1.0 °F 1018.8 in West 5.0 mph 6.1 mph 98 % 0.0 in
23:06 0.5 °F 1.0 °F 1018.8 in Calm   6.1 mph 98 % 0.0 in
23:07 0.5 °F 1.0 °F 1018.8 in Calm   6.1 mph 98 % 0.0 in
23:08 0.5 °F 1.0 °F 1018.8 in Calm   6.1 mph 98 % 0.0 in
23:13 0.5 °F 1.0 °F 1018.8 in Calm   5.0 mph 98 % 0.0 in
23:18 0.6 °F 1.0 °F 1018.8 in Calm   6.1 mph 98 % 0.0 in
23:19 0.6 °F 1.0 °F 1018.8 in Calm   6.1 mph 98 % 0.0 in
23:20 0.6 °F 1.0 °F 1018.8 in Calm   6.1 mph 98 % 0.0 in
23:25 0.6 °F 1.0 °F 1018.8 in Calm     98 % 0.0 in
23:26 0.6 °F 1.0 °F 1018.8 in Calm     98 % 0.0 in
23:31 0.6 °F 1.0 °F 1018.8 in Calm     98 % 0.0 in
23:33 0.6 °F 1.0 °F 1018.8 in Calm     98 % 0.0 in
23:38 0.6 °F 1.0 °F 1018.8 in Calm     98 % 0.0 in
23:39 0.5 °F 1.0 °F 1018.8 in Calm     98 % 0.0 in
23:44 0.4 °F 1.0 °F 1018.8 in Calm     98 % 0.0 in
23:45 0.4 °F 1.0 °F 1018.8 in Calm     98 % 0.0 in
23:47 0.4 °F 1.0 °F 1018.8 in Calm     98 % 0.0 in
23:52 0.4 °F 1.0 °F 1018.8 in Calm   5.5 mph 98 % 0.0 in
23:53 0.4 °F 1.0 °F 1018.8 in Calm   5.5 mph 98 % 0.0 in
23:54 0.3 °F 1.0 °F 1018.8 in Calm   5.5 mph 98 % 0.0 in
23:59 0.3 °F 1.0 °F 1019.9 in Calm   5.5 mph 98 % 0.0 in
Le Gheer Warneton
Courtoisie de Weather Underground - 3 mb

Mise a jour :
Généré par Cumulus ()